DW3753 Weather Reports


Display with metric or nautical units.
time (UTC)temp
F
wind
direction
speed
MPH
gust
MPH
rain 1hr
in
rain 24hr
in
rain mn
in
humidity
%
barometer
mb
20260506011304 70 31 3.0 10.0 0.00 0.00 0.00 70 1004.2
20260506005818 70 16 2.0 10.0 0.00 0.00 0.00 69 1004.2
20260506004816 71 5 4.0 11.0 0.00 0.00 0.00 68 1003.8
20260506003816 71 5 3.0 12.0 0.00 0.00 0.00 68 1004.0
20260506002817 72 355 4.0 13.0 0.00 0.00 0.00 67 1003.6
20260506001810 73 5 11.0 19.0 0.00 0.00 0.00 65 1003.2
20260506000812 74 350 8.0 15.0 0.00 0.00 0.00 66 1003.2
20260506000257 74 344 10.0 17.0 0.00 0.00 0.00 64 1003.3
20260505234810 75 355 9.0 16.0 0.00 0.00 0.00 63 1003.2
20260505233809 75 355 9.0 14.0 0.00 0.00 0.00 62 1003.2
20260505232811 76 0 9.0 16.0 0.00 0.00 0.00 61 1003.2
20260505231810 76 0 10.0 15.0 0.00 0.00 0.00 61 1003.2
20260505230811 77 344 9.0 16.0 0.00 0.00 0.00 60 1003.2
20260505225810 78 291 11.0 18.0 0.00 0.00 0.00 58 1002.8
20260505225734 79 330 9.0 15.0 0.00 0.00 0.00 59 1003.1
20260505223806 79 315 12.0 17.0 0.00 0.00 0.00 58 1002.5
20260505222804 81 0 11.0 17.0 0.00 0.00 0.00 58 1002.4
20260505221804 82 298 10.0 18.0 0.00 0.00 0.00 57 1002.5
20260505220802 83 310 9.0 14.0 0.00 0.00 0.00 56 1002.2
20260505220716 84 286 8.0 15.0 0.00 0.00 0.00 51 1002.2
20260505215238 84 337 8.0 14.0 0.00 0.00 0.00 48 1002.1
20260505214237 84 340 8.0 13.0 0.00 0.00 0.00 48 1002.3
20260505212806 84 338 9.0 15.0 0.00 0.00 0.00 48 1002.3
20260505212242 85 348 10.0 17.0 0.00 0.00 0.00 48 1002.1
20260505211249 85 338 10.0 19.0 0.00 0.00 0.00 45 1002.2
20260505205759 89 274 6.0 11.0 0.00 0.00 0.00 51 1002.3
20260505204759 88 244 7.0 11.0 0.00 0.00 0.00 50 1002.3
20260505204725 88 207 6.0 11.0 0.00 0.00 0.00 51 1002.4
20260505202759 88 285 6.0 11.0 0.00 0.00 0.00 52 1002.4
20260505201758 88 250 6.0 14.0 0.00 0.00 0.00 52 1002.5
20260505200759 87 248 6.0 12.0 0.00 0.00 0.00 52 1002.8
20260505195759 87 246 8.0 13.0 0.00 0.00 0.00 52 1002.9
20260505194753 87 236 6.0 12.0 0.00 0.00 0.00 52 1003.0
20260505193754 87 266 7.0 11.0 0.00 0.00 0.00 52 1002.9
20260505192753 87 254 7.0 12.0 0.00 0.00 0.00 54 1003.0
20260505191752 86 213 8.0 14.0 0.00 0.00 0.00 54 1003.1
20260505190753 85 207 9.0 15.0 0.00 0.00 0.00 56 1002.9
20260505190239 85 240 9.0 14.0 0.00 0.00 0.00 57 1002.8
20260505185232 84 217 9.0 14.0 0.00 0.00 0.00 58 1002.8
20260505184234 84 194 9.0 14.0 0.00 0.00 0.00 62 1002.9
20260505182752 83 202 9.0 17.0 0.00 0.00 0.00 63 1003.0
20260505182707 83 203 11.0 18.0 0.00 0.00 0.00 65 1003.1
20260505180749 83 183 10.0 17.0 0.00 0.00 0.00 64 1003.1
20260505175745 83 213 9.0 15.0 0.00 0.00 0.00 65 1003.1
20260505174746 82 195 10.0 17.0 0.00 0.00 0.00 65 1003.2
20260505174228 82 200 11.0 20.0 0.00 0.00 0.00 64 1003.0
20260505172747 82 178 11.0 19.0 0.00 0.00 0.00 65 1003.0
20260505171747 82 200 11.0 20.0 0.00 0.00 0.00 65 1003.0
20260505170745 82 209 10.0 17.0 0.00 0.00 0.00 66 1003.2
20260505165747 81 238 12.0 19.0 0.00 0.00 0.00 66 1003.1
20260505164743 81 225 12.0 22.0 0.00 0.00 0.00 67 1003.2
20260505163743 80 192 12.0 21.0 0.00 0.00 0.00 68 1003.1
20260505162743 79 221 10.0 16.0 0.00 0.00 0.00 71 1003.0
20260505162233 78 196 11.0 17.0 0.00 0.00 0.00 72 1003.0
20260505160745 79 179 11.0 18.0 0.00 0.00 0.00 71 1002.9
20260505153222 76 193 12.0 20.0 0.00 0.00 0.00 77 1002.7
20260505152228 75 218 10.0 19.0 0.00 0.00 0.00 78 1002.7
20260505151709 75 185 13.0 21.0 0.00 0.00 0.00 77 1002.7
20260505140208 73 195 13.0 19.0 0.00 0.00 0.00 81 1002.8
20260505124726 70 199 10.0 18.0 0.00 0.00 0.00 85 1002.2
20260505123723 70 199 10.0 17.0 0.00 0.00 0.00 85 1002.0
20260505122721 70 223 10.0 18.0 0.00 0.00 0.00 85 1001.8
20260505121723 70 195 11.0 17.0 0.00 0.00 0.00 85 1001.7
20260505120721 70 174 10.0 17.0 0.00 0.00 0.00 85 1001.6
20260505115721 69 174 9.0 16.0 0.00 0.00 0.00 85 1001.6
20260505114722 69 164 10.0 21.0 0.00 0.00 0.00 85 1001.5
20260505113722 69 207 10.0 21.0 0.00 0.00 0.00 85 1001.5
20260505112721 69 164 8.0 16.0 0.00 0.00 0.00 86 1001.5
20260505111725 69 181 8.0 16.0 0.00 0.00 0.00 85 1001.4
20260505110721 69 186 8.0 17.0 0.00 0.00 0.00 85 1001.4
20260505110218 69 177 8.0 17.0 0.00 0.00 0.00 85 1001.4
20260505101723 69 178 6.0 13.0 0.00 0.00 0.00 85 1001.4
20260505100721 69 201 7.0 14.0 0.00 0.00 0.00 85 1001.4
20260505095720 69 184 6.0 15.0 0.00 0.00 0.00 84 1001.5
20260505094720 70 196 7.0 15.0 0.00 0.00 0.00 84 1001.6
20260505093720 70 190 7.0 14.0 0.00 0.00 0.00 84 1001.5
20260505092719 70 154 7.0 14.0 0.00 0.00 0.00 83 1001.5
20260505092201 70 190 6.0 15.0 0.00 0.00 0.00 83 1001.8
20260505090720 70 155 7.0 12.0 0.00 0.00 0.00 82 1001.9
20260505085718 70 169 6.0 14.0 0.00 0.00 0.00 82 1002.0
20260505084717 71 161 8.0 16.0 0.00 0.00 0.00 81 1002.0
20260505083720 71 159 9.0 18.0 0.00 0.00 0.00 81 1002.1
20260505082715 71 175 9.0 19.0 0.00 0.00 0.00 80 1002.2
20260505081716 71 173 10.0 19.0 0.00 0.00 0.00 79 1002.1
20260505080714 71 201 10.0 19.0 0.00 0.00 0.00 79 1001.9
20260505075711 71 159 12.0 21.0 0.00 0.00 0.00 78 1002.0
20260505074712 71 184 11.0 24.0 0.00 0.00 0.00 78 1001.9
20260505073711 72 148 11.0 21.0 0.00 0.00 0.00 77 1002.1
20260505072713 72 131 11.0 22.0 0.00 0.00 0.00 77 1002.4
20260505072148 72 186 10.0 21.0 0.00 0.00 0.00 76 1002.7
20260505070712 72 196 9.0 20.0 0.00 0.00 0.00 76 1002.9
20260505065712 72 151 9.0 17.0 0.00 0.00 0.00 75 1003.0
20260505064709 72 174 8.0 17.0 0.00 0.00 0.00 75 1003.1
20260505063707 72 167 9.0 18.0 0.00 0.00 0.00 75 1003.3
20260505062708 73 170 9.0 17.0 0.00 0.00 0.00 74 1003.3
20260505061707 73 162 10.0 20.0 0.00 0.00 0.00 74 1003.4
20260505060707 73 149 10.0 20.0 0.00 0.00 0.00 73 1003.4
20260505055708 73 197 10.0 21.0 0.00 0.00 0.00 73 1003.4
20260505054709 73 180 11.0 23.0 0.00 0.00 0.00 73 1003.4
20260505054623 74 180 12.0 23.0 0.00 0.00 0.00 72 1003.3
20260505052701 74 201 11.0 23.0 0.00 0.00 0.00 72 1003.1
20260505051702 74 148 11.0 22.0 0.00 0.00 0.00 71 1003.2
20260505051150 74 167 10.0 26.0 0.00 0.00 0.00 71 1003.2
20260505041656 75 159 10.0 21.0 0.00 0.00 0.00 70 1003.6
20260505040657 75 148 9.0 25.0 0.00 0.00 0.00 70 1003.6
20260505035657 75 163 8.0 18.0 0.00 0.00 0.00 69 1003.6
20260505034655 75 187 9.0 18.0 0.00 0.00 0.00 69 1003.5
20260505034150 76 105 9.0 20.0 0.00 0.00 0.00 68 1003.5
20260505032655 76 134 8.0 20.0 0.00 0.00 0.00 68 1003.3
20260505031653 76 163 8.0 24.0 0.00 0.00 0.00 68 1003.4
20260505030653 76 166 8.0 18.0 0.00 0.00 0.00 68 1003.4
20260505030619 76 208 7.0 19.0 0.00 0.00 0.00 68 1003.4
20260505024653 76 102 7.0 18.0 0.00 0.00 0.00 68 1003.6
20260505023653 76 157 5.0 14.0 0.00 0.00 0.00 68 1003.6
20260505022653 76 176 5.0 14.0 0.00 0.00 0.00 68 1003.5
20260505021653 76 159 4.0 11.0 0.00 0.00 0.00 67 1003.5
20260505020653 76 152 4.0 13.0 0.00 0.00 0.00 67 1003.3
20260505015653 76 152 5.0 14.0 0.00 0.00 0.00 67 1003.3
20260505014655 76 148 6.0 15.0 0.00 0.00 0.00 66 1003.4
20260505013653 76 153 6.0 16.0 0.00 0.00 0.00 66 1003.3
20260505013134 76 139 5.0 10.0 0.00 0.00 0.00 65 1003.4